Waarnemingen

Advertentie
Mijn weer
Figari, Frankrijk (7780): temperatuur & dauwpunt: 26.05.2020 03:00:00 - 01.06.2020 03:00:00 (CEST)Figari, Frankrijk (7780): temperatuur 5cm: 26.05.2020 03:00:00 - 01.06.2020 03:00:00 (CEST)Figari, Frankrijk (7780): windsnelheid & windstoten: 26.05.2020 03:00:00 - 01.06.2020 03:00:00 (CEST)Figari, Frankrijk (7780): windrichting: 26.05.2020 03:00:00 - 01.06.2020 03:00:00 (CEST)Figari, Frankrijk (7780): luchtdruk: 26.05.2020 03:00:00 - 01.06.2020 03:00:00 (CEST)Figari, Frankrijk (7780): zicht: 26.05.2020 03:00:00 - 01.06.2020 03:00:00 (CEST)Figari, Frankrijk (7780): neerslag: 26.05.2020 03:00:00 - 01.06.2020 03:00:00 (CEST)
Datum & Tijd tt [°C] td [°C] tt 5cm [°C] ff [km/u] ff [kn] fx [km/u] fx [kn] dd ppp [hPa] vv [km] rr [mm]
01.06.2020 03:00:00 10,4 9,8 7,7 7 4 9 5 NNO 1016,6 25 0,0
01.06.2020 02:00:00 10,5 9,4 8,7 3 2 8 4 N 1016,5 24 0,0
01.06.2020 01:00:00 11,7 10,4 9,4 5 3 10 5 N 1016,6 19 0,0
01.06.2020 00:00:00 13,4 11,6 10,6 6 3 10 5 N 1016,7 38 0,0
31.05.2020 23:00:00 14,5 12,2 12,5 8 4 13 7 NNO 1016,3 39 0,0
31.05.2020 22:00:00 15,8 12,9 14,2 8 4 16 9 NO 1015,9 42 0,0
31.05.2020 21:00:00 18,0 13,5 16,7 11 6 23 12 ONO 1015,3 53 0,0
31.05.2020 20:00:00 21,1 14,3 18,9 16 8 27 14 NO 1014,8 30 0,0
31.05.2020 19:00:00 22,4 14,0 20,4 16 9 33 18 NO 1014,5 37 0,0
31.05.2020 18:00:00 24,1 14,8 23,6 13 7 31 17 NO 1014,8 41 0,0
31.05.2020 17:00:00 24,5 11,1 24,1 21 11 36 20 WZW 1015,2 50 0,0
31.05.2020 16:00:00 25,4 10,8 26,3 14 7 28 15 WZW 1015,8 60 0,0
31.05.2020 15:00:00 24,7 11,3 21,9 10 5 23 13 WZW 1016,2 20 0,0
31.05.2020 14:00:00 22,1 11,2 22,1 13 7 33 18 ZZW 1016,5 59 0,0
31.05.2020 13:00:00 22,1 12,4 23,5 15 8 32 18 ZW 1016,6 60 0,0
31.05.2020 12:00:00 23,6 12,3 23,6 14 7 26 14 Z 1016,4 43 0,0
31.05.2020 11:00:00 22,5 13,0 19,8 16 9 24 13 ZZW 1016,2 44 0,0
31.05.2020 10:00:00 22,3 12,0 18,0 6 3 10 6 N 1016,1 47 0,0
31.05.2020 09:00:00 20,4 12,4 13,8 2 1 7 4 ZO 1016,1 53 0,0
31.05.2020 08:00:00 15,5 12,1 7,6 0 0 5 3 N 1016,1 43 0,0
31.05.2020 07:00:00 10,1 9,6 5,4 4 2 8 4 NNO 1016,1 39 0,0
31.05.2020 06:00:00 6,8 6,2 5,5 3 2 10 5 NNO 1015,9 26 0,2
31.05.2020 05:00:00 7,3 6,7 5,5 6 3 9 5 NNO 1015,7 29 0,0
31.05.2020 04:00:00 8,1 7,3 6,3 4 2 9 5 NW 1015,8 30 0,0
31.05.2020 03:00:00 8,6 7,8 6,3 8 5 10 6 NO 1016,1 34 0,0
31.05.2020 02:00:00 8,2 7,3 6,6 4 2 7 4 NO 1016,5 36 0,0
31.05.2020 01:00:00 9,1 8,0 7,2 6 3 9 5 ONO 1016,5 39 0,0
31.05.2020 00:00:00 9,9 8,7 8,3 3 2 8 4 O 1016,7 51 0,0
30.05.2020 23:00:00 11,9 9,6 9,6 7 4 9 5 NNO 1016,4 57 0,0
30.05.2020 22:00:00 13,5 10,7 11,6 6 3 10 6 NNO 1016,1 60 0,0
30.05.2020 21:00:00 15,8 11,0 13,6 6 3 13 7 NNO 1015,2 55 0,0
30.05.2020 20:00:00 19,0 11,3 16,5 7 4 16 8 ZO 1015,0 60 0,0
30.05.2020 19:00:00 19,6 10,3 18,0 8 4 24 13 O 1014,7 45 0,0
30.05.2020 18:00:00 20,7 9,9 18,8 14 7 30 16 ONO 1014,7 56 0,0
30.05.2020 17:00:00 20,1 9,3 18,8 16 9 40 21 ONO 1015,0 59 0,0
30.05.2020 16:00:00 20,5 10,9 20,7 16 9 46 25 ONO 1015,2 19 0,0
30.05.2020 15:00:00 20,8 10,6 21,8 24 13 51 27 NO 1015,5 22 0,0
30.05.2020 14:00:00 20,5 10,3 23,4 27 15 46 25 ONO 1015,5 19 0,0
30.05.2020 13:00:00 21,7 12,0 20,0 22 12 50 27 O 1015,7 20 0,0
30.05.2020 12:00:00 19,7 10,9 20,5 19 10 36 19 ONO 1016,0 36 0,0
30.05.2020 11:00:00 19,5 11,0 20,3 22 12 39 21 ONO 1015,9 44 0,0
30.05.2020 10:00:00 20,3 11,2 16,6 17 9 34 18 ONO 1015,9 51 0,0
30.05.2020 09:00:00 18,8 9,8 15,1 18 10 29 16 NO 1016,1 60 0,0
30.05.2020 08:00:00 17,5 10,4 11,6 10 5 18 10 ONO 1016,1 54 0,0
30.05.2020 07:00:00 13,7 10,3 10,2 2 1 9 5 NNW 1016,3 42 0,0
30.05.2020 06:00:00 11,2 9,1 10,6 8 4 20 11 NO 1016,3 58 0,0
30.05.2020 05:00:00 11,9 10,5 10,6 11 6 17 9 ONO 1016,4 49 0,0
30.05.2020 04:00:00 12,3 10,7 9,8 10 5 24 13 ONO 1016,8 53 0,0
30.05.2020 03:00:00 11,8 10,7 9,8 9 5 20 11 ONO 1017,2 56 0,0
30.05.2020 02:00:00 12,7 11,1 11,7 6 4 19 11 O 1017,5 52 0,0
30.05.2020 01:00:00 13,2 11,3 10,3 13 7 23 12 ONO 1017,8 59 0,0
30.05.2020 00:00:00 12,9 11,5 11,5 5 3 12 6 ONO 1018,1 46 0,0
29.05.2020 23:00:00 14,1 12,7 13,8 10 5 19 10 ONO 1018,1 43 0,0
29.05.2020 22:00:00 14,6 12,6 14,5 11 6 26 14 ONO 1017,9 33 0,0
29.05.2020 21:00:00 15,4 12,7 15,0 14 8 35 19 ONO 1017,5 55 0,0
29.05.2020 20:00:00 16,5 13,2 16,4 21 11 36 20 NO 1017,6 22 0,0
29.05.2020 19:00:00 18,5 13,6 18,1 17 9 29 16 NO 1017,5 43 0,0
29.05.2020 18:00:00 18,0 13,5 18,4 21 11 41 22 NO 1018,0 36 0,0
29.05.2020 17:00:00 18,9 13,5 18,9 22 12 40 22 ONO 1018,2 33 0,0
29.05.2020 16:00:00 20,0 13,9 20,6 23 12 45 24 ONO 1018,2 20 0,0
29.05.2020 15:00:00 20,5 12,7 21,5 26 14 47 26 ONO 1018,4 20 0,0
29.05.2020 14:00:00 20,2 12,4 21,2 27 15 45 24 NO 1018,6 28 0,0
29.05.2020 13:00:00 22,5 12,7 19,6 16 9 35 19 ONO 1018,6 20 0,0
29.05.2020 12:00:00 20,6 14,9 20,5 8 4 24 13 Z 1018,6 56 0,0
29.05.2020 11:00:00 23,4 15,7 20,6 15 8 29 16 ZZW 1018,2 53 0,0
29.05.2020 10:00:00 22,6 11,0 18,9 3 2 13 7 ZO 1018,3 18 0,0
29.05.2020 09:00:00 20,9 13,1 15,9 5 3 16 8 ZZO 1018,6 60 0,0
29.05.2020 08:00:00 19,4 12,6 10,3 2 1 13 7 ZZW 1018,5 44 0,2
29.05.2020 07:00:00 13,0 11,4 6,5 4 2 14 7 NNO 1018,3 14 0,0
29.05.2020 06:00:00 8,4 8,0 6,1 6 3 10 5 NNO 1018,6 20 0,0
29.05.2020 05:00:00 7,7 6,9 6,1 5 3 8 5 N 1018,8 47 0,0
29.05.2020 04:00:00 7,5 6,6 5,2 3 2 7 4 N 1019,3 12 0,0
29.05.2020 03:00:00 7,3 6,2 5,2 4 2 8 4 N 1019,8 10 0,0
29.05.2020 02:00:00 8,5 7,3 6,3 4 2 6 4 N 1020,3 48 0,0
29.05.2020 01:00:00 9,7 7,8 7,7 6 3 8 5 NO 1020,6 33 0,0
29.05.2020 00:00:00 11,0 8,7 8,5 5 3 8 4 NO 1021,0 60 0,0
28.05.2020 23:00:00 12,4 9,4 10,1 0 0 11 6 N 1021,4 59 0,0
28.05.2020 22:00:00 15,0 10,0 11,9 8 4 10 5 NNO 1021,5 20 0,0
28.05.2020 21:00:00 17,9 10,0 14,7 6 3 22 12 NO 1021,2 60 0,0
28.05.2020 20:00:00 21,8 9,7 17,7 8 5 23 12 NO 1021,2 48 0,0
28.05.2020 19:00:00 24,0 9,6 19,1 9 5 32 18 NNO 1021,3 48 0,0
28.05.2020 18:00:00 25,1 8,1 21,8 19 11 38 20 W 1021,8 30 0,0
28.05.2020 17:00:00 25,2 9,5 24,6 22 12 43 23 WZW 1022,4 20 0,0
28.05.2020 16:00:00 25,0 10,5 27,2 20 11 32 18 WZW 1023,1 26 0,0
28.05.2020 15:00:00 25,0 8,9 29,7 18 10 32 18 ZW 1023,7 30 0,0
28.05.2020 14:00:00 24,8 11,7 29,3 16 9 31 17 ZZW 1024,3 29 0,0
28.05.2020 13:00:00 23,6 11,9 27,3 18 10 29 16 ZZW 1024,9 20 0,0
28.05.2020 12:00:00 23,7 11,1 24,4 16 9 32 17 ZZW 1025,2 38 0,0
28.05.2020 11:00:00 23,0 12,6 20,8 15 8 31 17 Z 1025,5 44 0,0
28.05.2020 10:00:00 22,4 12,3 18,4 20 11 31 17 Z 1025,5 60 0,0
28.05.2020 09:00:00 21,3 12,7 13,4 13 7 21 12 ZZW 1025,9 18 0,0
28.05.2020 08:00:00 16,1 9,5 7,0 0 0 5 3 N 1026,5 50 0,0
28.05.2020 07:00:00 8,9 7,8 5,0 2 1 8 4 OZO 1026,8 56 0,0
28.05.2020 06:00:00 5,9 5,0 5,0 3 2 8 4 NO 1026,9 53 0,0
28.05.2020 05:00:00 6,8 5,9 5,2 4 2 11 6 N 1027,1 58 0,0
28.05.2020 04:00:00 6,5 5,6 5,2 4 2 9 5 NO 1027,0 53 0,0
28.05.2020 03:00:00 7,0 5,8 5,3 5 3 9 5 NO 1027,1 60 0,0
28.05.2020 02:00:00 7,4 5,7 5,9 6 3 10 5 NO 1027,2 60 0,0
28.05.2020 01:00:00 8,1 6,6 6,5 7 4 9 5 NO 1027,4 60 0,0
28.05.2020 00:00:00 9,5 7,4 7,4 5 3 10 5 NO 1027,5 60 0,0
27.05.2020 23:00:00 10,7 7,9 8,7 5 3 11 6 NNO 1027,6 60 0,0
27.05.2020 22:00:00 11,6 8,4 9,7 4 2 9 5 N 1027,5 60 0,0
27.05.2020 21:00:00 15,2 9,5 13,2 6 3 13 7 NNO 1027,1 46 0,0
27.05.2020 20:00:00 19,4 8,7 16,8 8 4 11 6 ONO 1027,0 60 0,0
27.05.2020 19:00:00 21,3 8,5 18,1 2 1 30 16 ONO 1026,8 58 0,0
27.05.2020 18:00:00 21,1 6,2 18,5 18 10 39 21 NO 1026,9 46 0,0
27.05.2020 17:00:00 21,3 6,4 19,6 20 11 46 25 ONO 1027,0 35 0,0
27.05.2020 16:00:00 22,5 6,3 22,9 22 12 49 26 ONO 1027,3 15 0,0
27.05.2020 15:00:00 24,3 5,1 26,2 25 14 52 28 NO 1027,3 11 0,0
27.05.2020 14:00:00 24,1 6,4 25,9 27 15 58 31 ONO 1027,2 12 0,0
27.05.2020 13:00:00 23,3 8,9 24,7 29 16 59 32 ONO 1027,9 14 0,0
27.05.2020 12:00:00 23,1 8,4 23,6 29 15 56 30 ONO 1027,9 17 0,0
27.05.2020 11:00:00 22,4 8,9 21,7 23 12 54 29 O 1027,9 17 0,0
27.05.2020 10:00:00 21,4 9,0 19,9 24 13 52 28 ONO 1027,8 17 0,0
27.05.2020 09:00:00 20,9 7,8 17,2 31 17 75 40 ONO 1027,4 20 0,0
27.05.2020 08:00:00 20,6 5,4 14,8 25 14 62 33 ONO 1026,8 24 0,0
27.05.2020 07:00:00 18,8 4,5 14,6 19 11 42 23 ONO 1026,5 26 0,0
27.05.2020 06:00:00 17,1 7,7 14,2 21 12 45 25 NO 1026,1 60 0,0
27.05.2020 05:00:00 17,9 6,4 14,1 17 9 36 19 ONO 1025,9 60 0,0
27.05.2020 04:00:00 17,8 9,4 14,6 18 10 34 19 ONO 1025,9 60 0,0
27.05.2020 03:00:00 18,1 9,7 14,7 17 9 38 21 ONO 1025,9 60 0,0
27.05.2020 02:00:00 18,3 10,4 14,5 16 9 31 17 ONO 1025,9 60 0,0
27.05.2020 01:00:00 18,3 11,4 15,3 15 8 31 17 O 1026,0 60 0,0
27.05.2020 00:00:00 18,4 14,7 16,3 18 10 32 17 ONO 1025,7 60 0,0
26.05.2020 23:00:00 17,7 15,9 16,3 11 6 17 9 NO 1024,8 52 0,0
26.05.2020 22:00:00 18,8 15,8 17,4 9 5 18 10 ONO 1024,0 55 0,0
26.05.2020 21:00:00 19,8 16,4 18,2 7 4 17 9 ONO 1023,5 60 0,0
26.05.2020 20:00:00 22,4 16,0 20,0 11 6 28 15 ONO 1023,4 50 0,0
26.05.2020 19:00:00 24,3 12,3 20,5 16 8 29 15 ONO 1023,0 26 0,0
26.05.2020 18:00:00 25,2 10,3 22,1 16 9 30 16 NO 1023,0 26 0,0
26.05.2020 17:00:00 26,9 8,3 24,7 15 8 29 16 NO 1023,1 29 0,0
26.05.2020 16:00:00 27,3 7,2 26,9 15 8 33 18 ONO 1023,3 29 0,0
26.05.2020 15:00:00 27,1 8,0 28,4 15 8 33 18 ONO 1023,5 26 0,0
26.05.2020 14:00:00 27,0 10,2 28,8 16 9 46 25 O 1023,9 30 0,0
26.05.2020 13:00:00 27,7 8,0 28,3 9 5 27 14 OZO 1024,0 43 0,0
26.05.2020 12:00:00 27,3 15,6 24,7 11 6 22 12 ZZW 1024,2 43 0,0
26.05.2020 11:00:00 26,3 10,0 21,8 12 6 24 13 NNO 1024,3 11 0,0
26.05.2020 10:00:00 25,2 11,7 19,2 11 6 23 13 ONO 1024,1 43 0,0
26.05.2020 09:00:00 23,2 13,4 15,8 11 6 21 11 ONO 1023,9 58 0,0
26.05.2020 08:00:00 19,0 14,3 9,2 9 5 13 7 ONO 1024,0 58 0,0
26.05.2020 07:00:00 11,3 10,8 7,1 3 1 10 5 NO 1024,0 37 0,0
26.05.2020 06:00:00 9,0 8,5 7,1 5 3 6 4 NO 1023,7 29 0,0
26.05.2020 05:00:00 9,8 9,3 7,9 9 5 11 6 NO 1023,5 29 0,0
26.05.2020 04:00:00 10,3 9,7 8,3 3 2 10 5 N 1023,6 26 0,0
26.05.2020 03:00:00 11,1 10,5 9,3 5 3 9 5 NNO 1023,5 23 0,2

tt = temperatuur
td = dauwpunt
tt 5cm = temperatuur 5cm
ff = windsnelheid
fx = windstoten
dd = windrichting
ppp = luchtdruk
vv = zicht
rr = neerslag

Weerstations in de omgeving